DELTA 1 DEB, 21678

Orbit data source: Space-Track

DELTA 1 DEB, 21678 is space debris in SSO originally from a launch on Thu, 12 Jun 1975 UTC launched from the Air Force Western Test Range (AFWTR). Debris objects in space refer to the collection of defunct objects orbiting the Earth. Examples of debris include non-operational satellites, rocket bodies, and fragments generated from explosions, collisions, or faulty payload assembly.

Loading next visibility...
Identifier
21678, 1975-052JE
Orbit
SSO
Country
Flag of USUS
Related business
Manufacturer
Unknown
Mission
Spacecraft
Bus & Motor
Unknown
Mass
Unknown
Launch date (UTC)
1975-06-12 (51 years ago)
Launch vehicle
Unknown
Launch site
Air Force Western Test Range (AFWTR)
Object type
Payload
Rocket body
Debris
Shape & HBR
Unknown shape, 0.1 m
Radar Cross Section
Medium (>0.1 m² and <1 m²)

Expand to show TLE details & history
Last TLE update: 1 day ago

TLE from 1 day ago
0 DELTA 1 DEB
1 21678U 75052JE  26167.99418563  .00000526  00000-0  10231-2 0  9992
2 21678 100.0230  77.5215 0354601 305.6822  69.6086 13.19930762676481
Epoch: 2026-06-16T23:51Z
TLE epoch observation values (Epoch: 2026-06-16T23:51:37.638Z)
Latitude
18.85113°
Longitude
170.91468°
Altitude
1,102.28 km
Speed
7.344 km/s
True Right ascension
04h 56m 19s
True Declination
18° 45' 04"
Sunlit
Object was in daylight at epoch
Visualization orbit readout
Latitude
Unknown
Longitude
Unknown
Altitude
Unknown
Speed
Unknown
Apparent Right ascension
Unknown
Apparent Declination
Unknown
Sunlit
N/A
Visualization observer readout
Local Sidereal Time
21:51:42
Azimuth
Unknown
Elevation
Unknown
Doppler factor
Unknown
Orbital elements
Apogee altitude
1,450.433 km
Perigee altitude
914.243 km
Semi-major axis
7,560.475 km
Eccentricity
0.03546
Inclination
100.023°
RAAN
77.5215°
Arg. of periapsis
305.6822°
True anomaly
73.47416°
Mean anomaly
69.6086°
Eccentric anomaly
71.53572°
Mean motion
3.30156 °/min
Orbital period
109.04 mins
BSTAR
0.0010231
Loading maneuver chart data...
Computing Atmospheric mass density...
Loading historical data...
Loading historical data...
Loading historical data...
Loading historical data...
Loading historical data...
Loading historical data...
Loading historical data...

Documentation

Showing up to 5 results
|